Weather reports worldwide

Advertisment
Belgrad, Serbia (13274): temperature & dewpoint: 16.11.2017 06:00:00 - 22.11.2017 06:00:00 (CET)Belgrad, Serbia (13274): wind speed: 16.11.2017 06:00:00 - 22.11.2017 06:00:00 (CET)Belgrad, Serbia (13274): wind direction: 16.11.2017 06:00:00 - 22.11.2017 06:00:00 (CET)Belgrad, Serbia (13274): reduced air pressure: 16.11.2017 06:00:00 - 22.11.2017 06:00:00 (CET)Belgrad, Serbia (13274): visibility: 16.11.2017 06:00:00 - 22.11.2017 06:00:00 (CET)
Date & Time tt [°C] td [°C] ff [km/h] ff [kn] dd ppp [hPa] vv [km]
22.11.2017 06:00:00 - - - - - - -
22.11.2017 05:00:00 - - - - - - -
22.11.2017 04:00:00 8,7 2,3 4 2 WSW 1017,8 20
22.11.2017 03:00:00 - - - - - - -
22.11.2017 02:00:00 - - - - - - -
22.11.2017 01:00:00 9,0 2,0 7 4 W 1017,5 20
22.11.2017 00:00:00 - - - - - - -
21.11.2017 23:00:00 - - - - - - -
21.11.2017 22:00:00 8,6 2,8 4 2 SE 1017,7 20
21.11.2017 21:00:00 - - - - - - -
21.11.2017 20:00:00 - - - - - - -
21.11.2017 19:00:00 8,7 1,8 4 2 SE 1017,7 20
21.11.2017 18:00:00 - - - - - - -
21.11.2017 17:00:00 - - - - - - -
21.11.2017 16:00:00 9,3 0,4 4 2 WSW 1017,5 10
21.11.2017 15:00:00 - - - - - - -
21.11.2017 14:00:00 - - - - - - -
21.11.2017 13:00:00 8,8 -2,5 4 2 S 1017,5 20
21.11.2017 12:00:00 - - - - - - -
21.11.2017 11:00:00 - - - - - - -
21.11.2017 10:00:00 6,9 -2,2 7 4 S 1018,5 20
21.11.2017 09:00:00 - - - - - - -
21.11.2017 08:00:00 - - - - - - -
21.11.2017 07:00:00 3,2 -0,9 4 2 SSE 1019,1 20
21.11.2017 06:00:00 - - - - - - -
21.11.2017 05:00:00 - - - - - - -
21.11.2017 04:00:00 2,3 0,1 7 4 SSE 1020,1 20
21.11.2017 03:00:00 - - - - - - -
21.11.2017 02:00:00 - - - - - - -
21.11.2017 01:00:00 3,0 0,9 4 2 S 1020,7 20
21.11.2017 00:00:00 - - - - - - -
20.11.2017 23:00:00 - - - - - - -
20.11.2017 22:00:00 3,8 1,8 4 2 WSW 1020,8 20
20.11.2017 21:00:00 - - - - - - -
20.11.2017 20:00:00 - - - - - - -
20.11.2017 19:00:00 5,2 1,8 7 4 W 1020,5 20
20.11.2017 18:00:00 - - - - - - -
20.11.2017 17:00:00 - - - - - - -
20.11.2017 16:00:00 7,6 1,2 7 4 WNW 1018,9 20
20.11.2017 15:00:00 - - - - - - -
20.11.2017 14:00:00 - - - - - - -
20.11.2017 13:00:00 8,2 2,0 11 6 WNW 1018,7 10
20.11.2017 12:00:00 - - - - - - -
20.11.2017 11:00:00 - - - - - - -
20.11.2017 10:00:00 5,2 2,3 7 4 W 1019,7 4,0
20.11.2017 09:00:00 - - - - - - -
20.11.2017 08:00:00 - - - - - - -
20.11.2017 07:00:00 3,4 1,8 7 4 W 1018,1 4,0
20.11.2017 06:00:00 - - - - - - -
20.11.2017 05:00:00 - - - - - - -
20.11.2017 04:00:00 2,8 1,8 4 2 W 1017,2 4,0
20.11.2017 03:00:00 - - - - - - -
20.11.2017 02:00:00 - - - - - - -
20.11.2017 01:00:00 5,3 3,3 4 2 NW 1016,4 4,0
20.11.2017 00:00:00 - - - - - - -
19.11.2017 23:00:00 - - - - - - -
19.11.2017 22:00:00 5,6 3,8 7 4 NNW 1015,6 4,0
19.11.2017 21:00:00 - - - - - - -
19.11.2017 20:00:00 - - - - - - -
19.11.2017 19:00:00 7,0 4,0 4 2 SE 1013,3 4,0
19.11.2017 18:00:00 - - - - - - -
19.11.2017 17:00:00 - - - - - - -
19.11.2017 16:00:00 7,4 4,5 4 2 E 1013,1 4,0
19.11.2017 15:00:00 - - - - - - -
19.11.2017 14:00:00 - - - - - - -
19.11.2017 13:00:00 7,9 4,7 4 2 S 1014,0 4,0
19.11.2017 12:00:00 - - - - - - -
19.11.2017 11:00:00 - - - - - - -
19.11.2017 10:00:00 6,2 5,1 7 4 W 1016,0 4,0
19.11.2017 09:00:00 - - - - - - -
19.11.2017 08:00:00 - - - - - - -
19.11.2017 07:00:00 5,7 4,9 4 2 SW 1015,9 2,0
19.11.2017 06:00:00 - - - - - - -
19.11.2017 05:00:00 - - - - - - -
19.11.2017 04:00:00 5,8 5,1 4 2 W 1016,8 2,0
19.11.2017 03:00:00 - - - - - - -
19.11.2017 02:00:00 - - - - - - -
19.11.2017 01:00:00 5,9 5,3 4 2 W 1017,2 2,0
19.11.2017 00:00:00 - - - - - - -
18.11.2017 23:00:00 - - - - - - -
18.11.2017 22:00:00 5,9 5,3 7 4 W 1017,9 2,0
18.11.2017 21:00:00 - - - - - - -
18.11.2017 20:00:00 - - - - - - -
18.11.2017 19:00:00 6,2 4,7 4 2 NW 1018,2 2,0
18.11.2017 18:00:00 - - - - - - -
18.11.2017 17:00:00 - - - - - - -
18.11.2017 16:00:00 6,5 5,6 7 4 W 1018,3 2,0
18.11.2017 15:00:00 - - - - - - -
18.11.2017 14:00:00 - - - - - - -
18.11.2017 13:00:00 7,3 5,6 7 4 W 1018,9 2,0
18.11.2017 12:00:00 - - - - - - -
18.11.2017 11:00:00 - - - - - - -
18.11.2017 10:00:00 6,8 5,3 4 2 NW 1019,8 4,0
18.11.2017 09:00:00 - - - - - - -
18.11.2017 08:00:00 - - - - - - -
18.11.2017 07:00:00 6,4 5,1 7 4 NNE 1019,5 4,0
18.11.2017 06:00:00 - - - - - - -
18.11.2017 05:00:00 - - - - - - -
18.11.2017 04:00:00 6,9 5,8 4 2 NNE 1019,4 10
18.11.2017 03:00:00 - - - - - - -
18.11.2017 02:00:00 - - - - - - -
18.11.2017 01:00:00 7,2 6,2 7 4 NNE 1020,4 10
18.11.2017 00:00:00 - - - - - - -
17.11.2017 23:00:00 - - - - - - -
17.11.2017 22:00:00 8,0 6,8 7 4 NE 1021,0 10
17.11.2017 21:00:00 - - - - - - -
17.11.2017 20:00:00 - - - - - - -
17.11.2017 19:00:00 8,8 7,0 7 4 NE 1020,9 10
17.11.2017 18:00:00 - - - - - - -
17.11.2017 17:00:00 - - - - - - -
17.11.2017 16:00:00 9,1 5,6 7 4 E 1020,7 20
17.11.2017 15:00:00 - - - - - - -
17.11.2017 14:00:00 - - - - - - -
17.11.2017 13:00:00 9,1 5,1 7 4 ENE 1021,2 20
17.11.2017 12:00:00 - - - - - - -
17.11.2017 11:00:00 - - - - - - -
17.11.2017 10:00:00 8,0 4,9 11 6 ESE 1022,3 20
17.11.2017 09:00:00 - - - - - - -
17.11.2017 08:00:00 - - - - - - -
17.11.2017 07:00:00 7,4 4,9 7 4 E 1022,0 10
17.11.2017 06:00:00 - - - - - - -
17.11.2017 05:00:00 - - - - - - -
17.11.2017 04:00:00 7,5 5,8 11 6 ESE 1021,7 20
17.11.2017 03:00:00 - - - - - - -
17.11.2017 02:00:00 - - - - - - -
17.11.2017 01:00:00 7,5 5,3 11 6 ESE 1022,6 10
17.11.2017 00:00:00 - - - - - - -
16.11.2017 23:00:00 - - - - - - -
16.11.2017 22:00:00 7,4 5,8 11 6 SE 1023,3 10
16.11.2017 21:00:00 - - - - - - -
16.11.2017 20:00:00 - - - - - - -
16.11.2017 19:00:00 8,2 5,8 11 6 E 1023,2 10
16.11.2017 18:00:00 - - - - - - -
16.11.2017 17:00:00 - - - - - - -
16.11.2017 16:00:00 8,4 6,4 4 2 ENE 1023,0 10
16.11.2017 15:00:00 - - - - - - -
16.11.2017 14:00:00 - - - - - - -
16.11.2017 13:00:00 8,4 5,8 7 4 E 1024,4 10
16.11.2017 12:00:00 - - - - - - -
16.11.2017 11:00:00 - - - - - - -
16.11.2017 10:00:00 7,4 5,6 7 4 E 1025,4 4,0
16.11.2017 09:00:00 - - - - - - -
16.11.2017 08:00:00 - - - - - - -
16.11.2017 07:00:00 6,0 5,6 4 2 NE 1025,3 4,0
16.11.2017 06:00:00 - - - - - - -

tt = temperature
td = dewpoint
ff = wind speed
dd = wind direction
ppp = reduced air pressure
vv = visibility

Next stations